K7TSD Weather Reports


time (UTC)temp
F
wind
direction
speed
knots
gust
knots
rain 1hr
in
rain 24hr
in
rain mn
in
humidity
%
barometer
mb
20260502151918 63 341 7.8 8.7 0.00 0.00 0.00 29 1015.9
20260502151415 64 318 4.3 7.8 0.00 0.00 0.00 29 1015.7
20260502150913 63 346 5.2 6.1 0.00 0.00 0.00 30 1015.7
20260502150408 63 344 4.3 5.2 0.00 0.00 0.00 27 1015.9
20260502130254 53 260 0.0 0.0 0.00 0.00 0.00 39 1015.7
20260502123740 50 242 0.0 0.0 0.00 0.00 0.00 40 1015.7
20260502123237 49 226 0.0 0.0 0.00 0.00 0.00 42 1015.4
20260502122734 49 257 0.0 0.0 0.00 0.00 0.00 42 1015.8
20260502122230 49 233 0.0 0.0 0.00 0.00 0.00 41 1016.0
20260502121728 48 223 0.0 0.0 0.00 0.00 0.00 42 1015.8
20260502121226 47 224 0.0 0.0 0.00 0.00 0.00 43 1015.6
20260502120722 48 264 0.0 0.0 0.00 0.00 0.00 42 1015.8
20260502120219 49 256 0.0 0.0 0.00 0.00 0.00 41 1015.6
20260502115717 48 253 0.0 0.0 0.00 0.00 0.00 40 1015.7
20260502115213 49 211 0.0 0.0 0.00 0.00 0.00 41 1015.9
20260502114709 50 248 0.0 0.0 0.00 0.00 0.00 40 1015.6
20260502114207 50 284 0.0 0.0 0.00 0.00 0.00 40 1015.6
20260502113704 49 191 0.0 0.9 0.00 0.00 0.00 40 1015.7
20260502113202 49 250 0.0 0.0 0.00 0.00 0.00 41 1015.8
20260502112659 49 276 0.0 0.0 0.00 0.00 0.00 40 1015.7
20260502112156 48 251 0.0 0.0 0.00 0.00 0.00 41 1015.8
20260502111654 49 213 0.0 0.0 0.00 0.00 0.00 41 1015.8
20260502111151 49 247 0.0 0.0 0.00 0.00 0.00 41 1015.8
20260502110649 49 236 0.9 2.6 0.00 0.00 0.00 40 1015.8
20260502110146 50 249 0.9 1.7 0.00 0.00 0.00 41 1015.9
20260502105643 50 237 4.3 7.0 0.00 0.00 0.00 39 1016.0
20260502105140 50 245 1.7 5.2 0.00 0.00 0.00 40 1015.7
20260502104637 49 248 0.9 2.6 0.00 0.00 0.00 40 1016.1
20260502104135 50 245 0.0 0.0 0.00 0.00 0.00 40 1015.9
20260502103632 48 181 0.0 0.0 0.00 0.00 0.00 42 1015.9
20260502103130 47 245 0.0 0.0 0.00 0.00 0.00 43 1016.1
20260502102627 46 224 0.0 0.0 0.00 0.00 0.00 46 1015.9
20260502102123 47 181 0.0 0.0 0.00 0.00 0.00 45 1016.1
20260502101622 48 221 0.0 0.0 0.00 0.00 0.00 44 1016.3
20260502101120 48 211 0.0 0.0 0.00 0.00 0.00 42 1016.1
20260502100618 47 165 0.0 0.0 0.00 0.00 0.00 43 1016.1
20260502100116 48 156 0.0 0.0 0.00 0.00 0.00 42 1016.4
20260502091049 44 162 0.0 0.0 0.00 0.00 0.00 47 1016.4
20260502090546 43 157 0.0 0.0 0.00 0.00 0.00 48 1016.3
20260502071446 44 267 0.0 0.0 0.00 0.00 0.00 46 1017.3
20260502070944 44 222 0.0 0.0 0.00 0.00 0.00 47 1017.4
20260502070442 45 258 0.0 0.0 0.00 0.00 0.00 45 1017.5
20260502065940 45 263 0.0 0.0 0.00 0.00 0.00 46 1017.6
20260502065438 45 244 0.0 0.0 0.00 0.00 0.00 47 1017.6
20260502064936 44 263 0.0 0.0 0.00 0.00 0.00 48 1017.5
20260502064434 44 242 0.0 0.0 0.00 0.00 0.00 49 1017.6
20260502063931 44 245 0.0 0.0 0.00 0.00 0.00 47 1017.6
20260502063428 45 265 0.0 0.0 0.00 0.00 0.00 49 1017.4
20260502062926 44 227 0.0 0.0 0.00 0.00 0.00 50 1017.4
20260502062423 44 245 0.0 0.0 0.00 0.00 0.00 50 1017.9
20260502061922 45 262 0.9 2.6 0.00 0.00 0.00 48 1017.8
20260502061419 45 276 0.0 0.0 0.00 0.00 0.00 48 1017.6
20260502060915 46 230 0.0 0.0 0.00 0.00 0.00 50 1017.6
20260502060410 46 226 0.9 2.6 0.00 0.00 0.00 49 1017.5
20260502055908 45 256 0.0 0.0 0.00 0.00 0.00 49 1017.5
20260502055405 44 256 0.0 0.0 0.00 0.00 0.00 52 1017.5
20260502054900 44 308 0.0 0.9 0.00 0.00 0.00 53 1017.6
20260502054357 44 312 0.0 0.0 0.00 0.00 0.00 55 1017.9
20260502053854 43 301 0.0 0.0 0.00 0.00 0.00 55 1017.8
20260502053351 43 281 0.0 0.0 0.00 0.00 0.00 56 1017.6
20260502052849 45 269 0.0 0.0 0.00 0.00 0.00 53 1018.0
20260502052347 44 269 0.0 0.0 0.00 0.00 0.00 54 1017.9
20260502051844 43 239 0.0 0.0 0.00 0.00 0.00 57 1017.8
20260502051343 43 238 0.0 0.0 0.00 0.00 0.00 57 1017.6
20260502050839 43 246 0.0 0.0 0.00 0.00 0.00 58 1018.1
20260502050336 43 277 0.0 0.0 0.00 0.00 0.00 58 1017.6
20260502045833 44 251 0.0 0.0 0.00 0.00 0.00 58 1017.6
20260502045329 43 270 0.0 0.0 0.00 0.00 0.00 59 1018.1
20260502044826 44 283 0.0 0.0 0.00 0.00 0.00 58 1018.1
20260502044322 44 245 0.0 0.0 0.00 0.00 0.00 58 1018.0
20260502043820 44 233 0.0 0.0 0.00 0.00 0.00 59 1018.0
20260502043317 44 269 0.0 0.0 0.00 0.00 0.00 57 1018.0
20260502042817 44 262 0.0 0.0 0.00 0.00 0.00 57 1018.2
20260502042315 45 278 0.0 0.0 0.00 0.00 0.00 56 1018.1
20260502041812 45 252 0.0 0.0 0.00 0.00 0.00 56 1018.1
20260502041309 44 265 0.0 0.0 0.00 0.00 0.00 57 1017.9
20260502040806 44 267 0.0 0.0 0.00 0.00 0.00 58 1018.2
20260502040302 44 244 0.0 0.0 0.00 0.00 0.00 58 1017.9
20260502035759 44 252 0.0 0.0 0.00 0.00 0.00 58 1018.0
20260502035255 44 261 0.0 0.0 0.00 0.00 0.00 57 1018.1
20260502034752 44 273 0.0 0.0 0.00 0.00 0.00 58 1018.1
20260502034251 44 237 0.0 0.0 0.00 0.00 0.00 59 1017.8
20260502033749 45 266 0.0 0.0 0.00 0.00 0.00 58 1018.1
20260502033246 44 268 0.0 0.0 0.00 0.00 0.00 59 1017.8
20260502032743 44 241 0.0 0.0 0.00 0.00 0.00 59 1018.0
20260502032238 45 217 0.0 0.0 0.00 0.00 0.00 58 1017.8
20260502031737 45 223 0.0 0.0 0.00 0.00 0.00 58 1018.0
20260502031234 44 270 0.0 0.0 0.00 0.00 0.00 59 1017.8
20260502030733 45 235 0.0 0.0 0.00 0.00 0.00 58 1017.9
20260502030230 45 246 0.0 0.0 0.00 0.00 0.00 58 1017.6
20260502025727 45 256 0.0 0.0 0.00 0.00 0.00 59 1017.9
20260502025225 46 236 0.0 0.0 0.00 0.00 0.00 58 1017.8
20260502024723 46 225 0.0 0.0 0.00 0.00 0.00 58 1017.8
20260502024221 46 200 0.0 0.0 0.00 0.00 0.00 58 1017.9
20260502023719 45 235 0.0 0.0 0.00 0.00 0.00 58 1017.9
20260502023216 45 235 0.0 0.0 0.00 0.00 0.00 60 1017.5
20260502022713 46 185 0.0 0.0 0.00 0.00 0.00 59 1017.8
20260502022209 47 243 0.0 0.0 0.00 0.00 0.00 58 1017.5
20260502021707 47 249 0.0 0.0 0.00 0.00 0.00 57 1017.5
20260502021204 47 243 0.0 0.0 0.00 0.00 0.00 57 1017.2
20260502020701 48 229 0.0 0.0 0.00 0.00 0.00 57 1017.5
20260502020158 48 204 0.0 0.0 0.00 0.00 0.00 56 1017.6
20260502015656 49 247 0.0 0.0 0.00 0.00 0.00 55 1017.5
20260502015152 50 215 0.0 0.0 0.00 0.00 0.00 53 1017.3
20260502014650 55 166 0.0 0.0 0.00 0.00 0.00 47 1017.4
20260502014146 56 48 0.0 0.0 0.00 0.00 0.00 43 1017.4
20260502013642 56 339 0.0 0.0 0.00 0.00 0.00 42 1017.2
20260502013138 57 350 0.0 0.0 0.00 0.00 0.00 42 1017.5
20260502012635 57 20 0.0 0.0 0.00 0.00 0.00 41 1017.3
20260502012133 57 354 0.0 0.0 0.00 0.00 0.00 40 1017.2
20260502011630 57 340 0.0 0.0 0.00 0.00 0.00 40 1017.3
20260502011125 58 330 0.9 1.7 0.00 0.00 0.00 38 1017.4
20260502010624 58 18 0.0 0.0 0.00 0.00 0.00 38 1017.1
20260502010120 58 340 0.0 0.0 0.00 0.00 0.00 38 1017.3
20260502005618 58 359 2.6 4.3 0.00 0.00 0.00 37 1017.1
20260502005115 59 348 0.0 0.0 0.00 0.00 0.00 38 1017.2
20260502004610 59 29 0.0 0.0 0.00 0.00 0.00 39 1016.9
20260502004108 59 349 0.0 0.0 0.00 0.00 0.00 38 1016.9
20260502003606 59 330 4.3 5.2 0.00 0.00 0.00 37 1017.3
20260502003102 59 344 0.9 2.6 0.00 0.00 0.00 38 1016.9
20260502002558 59 330 5.2 7.0 0.00 0.00 0.00 37 1017.2
20260502002056 59 352 4.3 6.1 0.00 0.00 0.00 37 1017.2
20260502001554 59 323 0.0 0.0 0.00 0.00 0.00 39 1017.2
20260502001050 59 302 3.5 6.1 0.00 0.00 0.00 39 1017.1
20260502000549 59 321 2.6 5.2 0.00 0.00 0.00 38 1016.9
20260502000046 60 328 6.1 7.8 0.00 0.00 0.00 36 1016.9
20260501235541 60 358 0.0 0.0 0.00 0.00 0.00 38 1017.1
20260501235038 60 3 0.9 1.7 0.00 0.00 0.00 37 1016.7
20260501234533 59 344 0.9 2.6 0.00 0.00 0.00 38 1016.7
20260501234032 59 324 6.1 7.8 0.00 0.00 0.00 36 1016.9
20260501233529 60 347 0.9 2.6 0.00 0.00 0.00 37 1017.1
20260501233026 60 336 4.3 6.1 0.00 0.00 0.00 38 1017.3
20260501232522 60 336 0.0 0.9 0.00 0.00 0.00 38 1016.9
20260501232020 60 322 7.0 8.7 0.00 0.00 0.00 36 1017.1
20260501231518 60 344 7.0 8.7 0.00 0.00 0.00 34 1016.9
20260501231016 60 341 6.1 7.0 0.00 0.00 0.00 38 1016.8
20260501230514 59 334 8.7 11.3 0.00 0.00 0.00 36 1016.9
20260501230012 60 13 6.1 8.7 0.00 0.00 0.00 37 1016.7
20260501225509 60 9 1.7 4.3 0.00 0.00 0.00 36 1017.2
20260501225004 59 312 7.8 9.6 0.00 0.00 0.00 38 1016.9
20260501224502 59 20 8.7 13.0 0.00 0.00 0.00 36 1017.2
20260501223959 59 327 6.1 7.0 0.00 0.00 0.00 37 1017.1
20260501223455 60 354 7.8 12.2 0.00 0.00 0.00 35 1017.1
20260501222950 59 333 0.9 1.7 0.00 0.00 0.00 35 1017.2
20260501222448 60 3 9.6 13.0 0.00 0.00 0.00 36 1016.8
20260501221944 60 356 1.7 2.6 0.00 0.00 0.00 38 1016.8
20260501221442 59 347 11.3 14.8 0.00 0.00 0.00 38 1017.1
20260501220939 59 356 9.6 14.8 0.00 0.00 0.00 37 1016.9
20260501220437 59 5 1.7 2.6 0.00 0.00 0.00 37 1017.2
20260501215932 59 347 10.4 13.0 0.00 0.00 0.00 34 1017.3
20260501215430 60 316 7.8 11.3 0.00 0.00 0.00 38 1016.8
20260501214925 59 337 9.6 11.3 0.00 0.00 0.00 37 1016.9
20260501214420 59 4 8.7 12.2 0.00 0.00 0.00 38 1017.1
20260501213916 59 351 4.3 7.0 0.00 0.00 0.00 39 1017.2
20260501213414 60 4 5.2 6.1 0.00 0.00 0.00 37 1017.2
20260501212908 60 350 4.3 6.1 0.00 0.00 0.00 38 1017.2
20260501212406 60 341 5.2 6.1 0.00 0.00 0.00 39 1017.2
20260501211902 59 338 9.6 9.6 0.00 0.00 0.00 38 1017.3
20260501211400 59 330 10.4 11.3 0.00 0.00 0.00 37 1017.3
20260501210857 59 357 8.7 12.2 0.00 0.00 0.00 34 1017.5
20260501210349 59 343 4.3 6.1 0.00 0.00 0.00 39 1017.2
20260501205845 59 352 13.0 15.6 0.00 0.00 0.00 36 1017.4
20260501205342 59 25 12.2 14.8 0.00 0.00 0.00 38 1017.4
20260501204839 59 6 10.4 15.6 0.00 0.00 0.00 38 1017.3
20260501204336 60 351 6.1 8.7 0.00 0.00 0.00 38 1017.5
20260501203832 59 359 8.7 14.8 0.00 0.00 0.00 36 1017.4
20260501203329 60 8 6.1 7.0 0.00 0.00 0.00 39 1017.4
20260501202826 59 298 9.6 13.0 0.00 0.00 0.00 36 1017.4
20260501202323 58 336 5.2 7.0 0.00 0.00 0.00 39 1017.5
20260501201820 59 358 7.8 9.6 0.00 0.00 0.00 39 1017.5
20260501201317 59 359 8.7 11.3 0.00 0.00 0.00 39 1017.4
20260501200813 59 352 5.2 6.1 0.00 0.00 0.00 40 1017.3
20260501200310 59 348 9.6 15.6 0.00 0.00 0.00 39 1017.4
20260501195808 59 328 10.4 14.8 0.00 0.00 0.00 39 1017.3
20260501195306 58 356 6.1 7.8 0.00 0.00 0.00 41 1017.4
20260501194800 58 325 10.4 14.8 0.00 0.00 0.00 39 1017.4
20260501194256 58 357 6.1 7.8 0.00 0.00 0.00 41 1017.4
20260501193752 59 337 5.2 9.6 0.00 0.00 0.00 40 1017.5
20260501193251 57 331 6.1 7.8 0.00 0.00 0.00 40 1017.3
20260501192748 58 358 11.3 13.9 0.00 0.00 0.00 41 1017.3
20260501192244 57 323 5.2 7.0 0.00 0.00 0.00 43 1017.5
20260501191742 58 342 10.4 13.9 0.00 0.00 0.00 39 1017.3
20260501191239 57 349 13.0 13.9 0.00 0.00 0.00 38 1017.4
20260501190736 57 351 9.6 13.0 0.00 0.00 0.00 40 1017.4
20260501190231 57 343 5.2 7.8 0.00 0.00 0.00 41 1017.4
20260501185727 57 335 9.6 12.2 0.00 0.00 0.00 39 1017.4
20260501185224 57 350 13.0 15.6 0.00 0.00 0.00 40 1017.4
20260501184720 57 6 9.6 15.6 0.00 0.00 0.00 39 1017.5
20260501184215 57 338 9.6 13.0 0.00 0.00 0.00 40 1017.8
20260501183711 57 348 14.8 20.0 0.00 0.00 0.00 38 1017.6
20260501183209 57 335 7.0 8.7 0.00 0.00 0.00 39 1017.6
20260501182705 57 348 13.0 14.8 0.00 0.00 0.00 39 1017.4
20260501182201 57 328 9.6 12.2 0.00 0.00 0.00 40 1017.5
20260501181658 57 350 12.2 13.9 0.00 0.00 0.00 38 1017.6
20260501181156 58 2 7.8 11.3 0.00 0.00 0.00 41 1017.3
20260501180654 58 353 5.2 7.8 0.00 0.00 0.00 41 1017.4
20260501180149 57 355 7.8 7.8 0.00 0.00 0.00 41 1017.3
20260501175646 57 350 8.7 11.3 0.00 0.00 0.00 41 1017.5
20260501175143 57 355 8.7 14.8 0.00 0.00 0.00 39 1017.5
20260501174640 57 339 7.8 13.0 0.00 0.00 0.00 42 1017.5
20260501174137 57 354 17.4 21.7 0.00 0.00 0.00 40 1017.6
20260501173635 57 10 11.3 13.9 0.00 0.00 0.00 41 1017.4
20260501173132 56 347 3.5 5.2 0.00 0.00 0.00 41 1017.5
20260501172627 56 358 13.0 18.2 0.00 0.00 0.00 39 1017.5
20260501172122 57 344 13.0 15.6 0.00 0.00 0.00 40 1017.5
20260501171618 56 356 13.9 15.6 0.00 0.00 0.00 41 1017.8
20260501171115 56 341 11.3 15.6 0.00 0.00 0.00 40 1017.4
20260501170612 57 357 4.3 8.7 0.00 0.00 0.00 44 1017.4
20260501170109 56 332 8.7 13.0 0.00 0.00 0.00 42 1017.4
20260501165606 56 351 7.0 13.0 0.00 0.00 0.00 43 1017.6
20260501165104 55 334 5.2 7.8 0.00 0.00 0.00 43 1017.5
20260501164601 55 348 10.4 12.2 0.00 0.00 0.00 40 1017.6
20260501164058 57 316 8.7 12.2 0.00 0.00 0.00 41 1017.5
20260501163555 56 351 5.2 7.0 0.00 0.00 0.00 43 1017.3
20260501163052 55 311 6.1 7.8 0.00 0.00 0.00 42 1017.4
20260501162548 55 321 6.1 7.0 0.00 0.00 0.00 41 1017.6
20260501162045 55 300 10.4 14.8 0.00 0.00 0.00 41 1017.3
20260501161542 55 336 9.6 11.3 0.00 0.00 0.00 41 1017.5
20260501161038 55 338 9.6 9.6 0.00 0.00 0.00 41 1017.5
20260501160536 55 311 5.2 12.2 0.00 0.00 0.00 44 1017.4
20260501160033 55 346 11.3 14.8 0.00 0.00 0.00 41 1017.2
20260501155529 55 314 4.3 7.0 0.00 0.00 0.00 42 1016.9
20260501155026 55 335 6.1 8.7 0.00 0.00 0.00 42 1017.3
20260501154518 55 335 6.1 7.8 0.00 0.00 0.00 42 1016.9
20260501154015 55 340 8.7 9.6 0.00 0.00 0.00 42 1016.9
20260501153513 53 324 9.6 12.2 0.00 0.00 0.00 42 1016.9
20260501153008 53 348 9.6 14.8 0.00 0.00 0.00 42 1017.1
20260501152506 54 336 7.0 9.6 0.00 0.00 0.00 43 1016.9